| time (UTC) | temp F | wind direction | speed knots | gust knots | rain 1hr in | rain 24hr in | rain mn in | humidity % | barometer mb |
| 20260904002517 | 80 | 0.0 | 0.0 | 0.00 | 0.00 | 0.00 | 75 | 1019.1 | |
| 20260904001517 | 80 | 0.0 | 0.0 | 0.00 | 0.00 | 0.00 | 75 | 1019.0 | |
| 20260904000517 | 81 | 0.0 | 0.0 | 0.00 | 0.00 | 0.00 | 75 | 1018.9 | |
| 20260903235517 | 82 | 0.0 | 0.0 | 0.00 | 0.00 | 0.00 | 74 | 1018.9 | |
| 20260903234517 | 82 | 0.0 | 0.0 | 0.00 | 0.00 | 0.00 | 73 | 1018.9 | |
| 20260903233519 | 83 | 0.0 | 0.0 | 0.00 | 0.00 | 0.00 | 72 | 1018.9 | |
| 20260903232516 | 84 | 0.0 | 0.0 | 0.00 | 0.00 | 0.00 | 70 | 1018.8 | |
| 20260903231517 | 85 | 0.0 | 0.0 | 0.00 | 0.00 | 0.00 | 66 | 1018.8 | |
| 20260903230517 | 86 | 0.0 | 0.0 | 0.00 | 0.00 | 0.00 | 65 | 1019.0 | |
| 20260903225517 | 87 | 0.0 | 0.0 | 0.00 | 0.00 | 0.00 | 65 | 1018.9 | |
| 20260903224516 | 88 | 0.0 | 0.0 | 0.00 | 0.00 | 0.00 | 59 | 1018.9 | |
| 20260903223516 | 88 | 0.0 | 0.0 | 0.00 | 0.00 | 0.00 | 59 | 1019.2 | |
| 20260903222517 | 89 | 0.0 | 0.0 | 0.00 | 0.00 | 0.00 | 58 | 1019.2 | |
| 20260903221516 | 89 | 0.0 | 0.0 | 0.00 | 0.00 | 0.00 | 57 | 1019.1 | |
| 20260903220537 | 90 | 0.0 | 0.0 | 0.00 | 0.00 | 0.00 | 59 | 1019.2 | |
| 20260903215537 | 90 | 0.0 | 0.0 | 0.00 | 0.00 | 0.00 | 58 | 1019.3 | |
| 20260903214516 | 91 | 0.0 | 0.0 | 0.00 | 0.00 | 0.00 | 56 | 1019.2 | |
| 20260903213516 | 92 | 0.0 | 0.9 | 0.00 | 0.00 | 0.00 | 54 | 1019.2 | |
| 20260903212536 | 92 | 0.0 | 0.0 | 0.00 | 0.00 | 0.00 | 53 | 1019.3 | |
| 20260903211516 | 92 | 0.0 | 0.9 | 0.00 | 0.00 | 0.00 | 52 | 1019.4 | |
| 20260903210516 | 93 | 0.0 | 1.7 | 0.00 | 0.00 | 0.00 | 51 | 1019.5 | |
| 20260903205516 | 95 | 0.0 | 0.9 | 0.00 | 0.00 | 0.00 | 50 | 1019.6 | |
| 20260903204536 | 96 | 0.0 | 1.7 | 0.00 | 0.00 | 0.00 | 49 | 1019.9 | |
| 20260903203516 | 97 | 0.0 | 1.7 | 0.00 | 0.00 | 0.00 | 46 | 1020.2 | |
| 20260903202516 | 96 | 0.0 | 0.0 | 0.00 | 0.00 | 0.00 | 48 | 1020.1 | |
| 20260903201516 | 97 | 0.0 | 0.0 | 0.00 | 0.00 | 0.00 | 48 | 1020.1 | |
| 20260903200516 | 96 | 0.0 | 0.9 | 0.00 | 0.00 | 0.00 | 49 | 1020.2 | |
| 20260903195516 | 95 | 0.0 | 0.9 | 0.00 | 0.00 | 0.00 | 49 | 1020.3 | |
| 20260903194516 | 95 | 0.0 | 0.9 | 0.00 | 0.00 | 0.00 | 49 | 1020.4 | |
| 20260903193516 | 94 | 135 | 0.9 | 1.7 | 0.00 | 0.00 | 0.00 | 51 | 1020.5 |
| 20260903192516 | 94 | 135 | 0.9 | 1.7 | 0.00 | 0.00 | 0.00 | 51 | 1020.6 |
| 20260903191516 | 95 | 158 | 0.9 | 1.7 | 0.00 | 0.00 | 0.00 | 50 | 1020.6 |
| 20260903190516 | 96 | 0.0 | 0.9 | 0.00 | 0.00 | 0.00 | 49 | 1020.8 | |
| 20260903185516 | 97 | 158 | 0.9 | 2.6 | 0.00 | 0.00 | 0.00 | 47 | 1020.9 |
| 20260903184516 | 97 | 0.0 | 0.9 | 0.00 | 0.00 | 0.00 | 45 | 1020.9 | |
| 20260903183536 | 95 | 158 | 0.9 | 0.9 | 0.00 | 0.00 | 0.00 | 47 | 1020.9 |
| 20260903182536 | 94 | 0.0 | 0.9 | 0.00 | 0.00 | 0.00 | 50 | 1021.2 | |
| 20260903181516 | 93 | 0.0 | 0.9 | 0.00 | 0.00 | 0.00 | 52 | 1021.2 | |
| 20260903180516 | 92 | 0.0 | 1.7 | 0.00 | 0.00 | 0.00 | 51 | 1021.2 | |
| 20260903175516 | 93 | 0.0 | 0.0 | 0.00 | 0.00 | 0.00 | 53 | 1021.5 | |
| 20260903174516 | 93 | 0.0 | 0.0 | 0.00 | 0.00 | 0.00 | 50 | 1021.6 | |
| 20260903173516 | 93 | 0.0 | 0.9 | 0.00 | 0.00 | 0.00 | 51 | 1021.8 | |
| 20260903172516 | 92 | 0.0 | 0.9 | 0.00 | 0.00 | 0.00 | 52 | 1021.8 | |
| 20260903171516 | 91 | 0.0 | 0.9 | 0.00 | 0.00 | 0.00 | 58 | 1022.0 | |
| 20260903170516 | 91 | 0.0 | 0.9 | 0.00 | 0.00 | 0.00 | 57 | 1022.1 | |
| 20260903165516 | 90 | 0.0 | 0.9 | 0.00 | 0.00 | 0.00 | 54 | 1022.3 | |
| 20260903164516 | 89 | 23 | 0.9 | 3.5 | 0.00 | 0.00 | 0.00 | 54 | 1022.3 |
| 20260903163536 | 88 | 0.0 | 2.6 | 0.00 | 0.00 | 0.00 | 56 | 1022.2 | |
| 20260903162536 | 87 | 0.0 | 1.7 | 0.00 | 0.00 | 0.00 | 60 | 1022.2 | |
| 20260903161536 | 87 | 0.0 | 0.9 | 0.00 | 0.00 | 0.00 | 65 | 1022.3 | |
| 20260903160516 | 87 | 0 | 0.9 | 2.6 | 0.00 | 0.00 | 0.00 | 62 | 1022.4 |
| 20260903155516 | 86 | 0.0 | 0.9 | 0.00 | 0.00 | 0.00 | 65 | 1022.5 | |
| 20260903154516 | 85 | 0.0 | 0.9 | 0.00 | 0.00 | 0.00 | 68 | 1022.4 | |
| 20260903153516 | 83 | 0.0 | 0.9 | 0.00 | 0.00 | 0.00 | 70 | 1022.4 | |
| 20260903152536 | 82 | 0.0 | 0.0 | 0.00 | 0.00 | 0.00 | 73 | 1022.3 | |
| 20260903151516 | 81 | 0.0 | 0.0 | 0.00 | 0.00 | 0.00 | 75 | 1022.3 | |
| 20260903150516 | 80 | 0.0 | 0.0 | 0.00 | 0.00 | 0.00 | 76 | 1022.2 | |
| 20260903145516 | 79 | 0.0 | 0.0 | 0.00 | 0.00 | 0.00 | 78 | 1022.3 | |
| 20260903144516 | 78 | 0.0 | 0.9 | 0.00 | 0.00 | 0.00 | 80 | 1022.3 | |
| 20260903143516 | 77 | 0.0 | 0.9 | 0.00 | 0.00 | 0.00 | 82 | 1022.2 | |
| 20260903142516 | 76 | 0.0 | 0.0 | 0.00 | 0.00 | 0.00 | 85 | 1022.3 | |
| 20260903141516 | 75 | 0.0 | 0.0 | 0.00 | 0.00 | 0.00 | 86 | 1022.2 | |
| 20260903140515 | 74 | 0.0 | 0.0 | 0.00 | 0.00 | 0.00 | 88 | 1022.1 | |
| 20260903135516 | 73 | 0.0 | 0.0 | 0.00 | 0.00 | 0.00 | 89 | 1022.1 | |
| 20260903134515 | 72 | 0.0 | 0.0 | 0.00 | 0.00 | 0.00 | 89 | 1022.1 | |
| 20260903133516 | 72 | 0.0 | 0.0 | 0.00 | 0.00 | 0.00 | 89 | 1022.1 | |
| 20260903132515 | 71 | 0.0 | 0.0 | 0.00 | 0.00 | 0.00 | 89 | 1022.1 | |
| 20260903131536 | 70 | 0.0 | 0.0 | 0.00 | 0.00 | 0.00 | 87 | 1021.9 | |
| 20260903130516 | 70 | 0.0 | 0.0 | 0.00 | 0.00 | 0.00 | 84 | 1021.9 | |
| 20260903125516 | 69 | 0.0 | 0.0 | 0.00 | 0.00 | 0.00 | 83 | 1022.0 | |
| 20260903124515 | 69 | 0.0 | 0.0 | 0.00 | 0.00 | 0.00 | 84 | 1022.1 | |
| 20260903123515 | 68 | 0.0 | 0.0 | 0.00 | 0.00 | 0.00 | 85 | 1022.0 | |
| 20260903122516 | 68 | 0.0 | 0.0 | 0.00 | 0.00 | 0.00 | 86 | 1022.2 | |
| 20260903121515 | 68 | 0.0 | 0.0 | 0.00 | 0.00 | 0.00 | 86 | 1022.3 | |
| 20260903120516 | 68 | 0.0 | 0.0 | 0.00 | 0.00 | 0.00 | 87 | 1022.1 | |
| 20260903115515 | 68 | 0.0 | 0.0 | 0.00 | 0.00 | 0.00 | 87 | 1022.2 | |
| 20260903114515 | 68 | 0.0 | 0.0 | 0.00 | 0.00 | 0.00 | 88 | 1022.2 | |
| 20260903113515 | 68 | 0.0 | 0.0 | 0.00 | 0.00 | 0.00 | 88 | 1022.0 | |
| 20260903112515 | 68 | 0.0 | 0.0 | 0.00 | 0.00 | 0.00 | 88 | 1022.0 | |
| 20260903111536 | 68 | 0.0 | 0.0 | 0.00 | 0.00 | 0.00 | 88 | 1021.9 | |
| 20260903110515 | 68 | 0.0 | 0.0 | 0.00 | 0.00 | 0.00 | 88 | 1021.7 | |
| 20260903105515 | 68 | 0.0 | 0.0 | 0.00 | 0.00 | 0.00 | 87 | 1021.7 | |
| 20260903104515 | 68 | 0.0 | 0.0 | 0.00 | 0.00 | 0.00 | 87 | 1021.7 | |
| 20260903103515 | 68 | 0.0 | 0.0 | 0.00 | 0.00 | 0.00 | 87 | 1021.6 | |
| 20260903102516 | 68 | 0.0 | 0.0 | 0.00 | 0.00 | 0.00 | 87 | 1021.7 | |
| 20260903101515 | 68 | 0.0 | 0.0 | 0.00 | 0.00 | 0.00 | 87 | 1021.7 | |
| 20260903100515 | 68 | 0.0 | 0.0 | 0.00 | 0.00 | 0.00 | 88 | 1021.7 | |
| 20260903095515 | 68 | 0.0 | 0.0 | 0.00 | 0.00 | 0.00 | 88 | 1021.8 | |
| 20260903094515 | 68 | 0.0 | 0.0 | 0.00 | 0.00 | 0.00 | 88 | 1021.8 | |
| 20260903093515 | 68 | 0.0 | 0.0 | 0.00 | 0.00 | 0.00 | 88 | 1021.8 | |
| 20260903092517 | 68 | 0.0 | 0.0 | 0.00 | 0.00 | 0.00 | 88 | 1022.0 | |
| 20260903091517 | 68 | 0.0 | 0.0 | 0.00 | 0.00 | 0.00 | 88 | 1021.9 | |
| 20260903090517 | 68 | 0.0 | 0.0 | 0.00 | 0.00 | 0.00 | 88 | 1021.8 | |
| 20260903085517 | 68 | 0.0 | 0.0 | 0.00 | 0.00 | 0.00 | 89 | 1021.8 | |
| 20260903084517 | 69 | 0.0 | 0.0 | 0.00 | 0.00 | 0.00 | 89 | 1021.8 | |
| 20260903083540 | 69 | 0.0 | 0.0 | 0.00 | 0.00 | 0.00 | 89 | 1021.8 | |
| 20260903082517 | 69 | 0.0 | 0.0 | 0.00 | 0.00 | 0.00 | 89 | 1021.8 | |
| 20260903081517 | 69 | 0.0 | 0.0 | 0.00 | 0.00 | 0.00 | 89 | 1021.8 | |
| 20260903080517 | 69 | 0.0 | 0.0 | 0.00 | 0.00 | 0.00 | 89 | 1021.8 | |
| 20260903075537 | 69 | 0.0 | 0.0 | 0.00 | 0.00 | 0.00 | 89 | 1021.6 | |
| 20260903074517 | 70 | 0.0 | 0.0 | 0.00 | 0.00 | 0.00 | 89 | 1021.7 | |
| 20260903073517 | 70 | 0.0 | 0.0 | 0.00 | 0.00 | 0.00 | 89 | 1021.9 | |
| 20260903072517 | 70 | 0.0 | 0.0 | 0.00 | 0.00 | 0.00 | 89 | 1021.8 | |
| 20260903071517 | 70 | 0.0 | 0.0 | 0.00 | 0.00 | 0.00 | 89 | 1021.7 | |
| 20260903070517 | 70 | 0.0 | 0.0 | 0.00 | 0.00 | 0.00 | 89 | 1021.6 | |
| 20260903065537 | 70 | 0.0 | 0.0 | 0.00 | 0.00 | 0.00 | 89 | 1021.4 | |
| 20260903064517 | 70 | 0.0 | 0.0 | 0.00 | 0.00 | 0.00 | 89 | 1021.8 | |
| 20260903063517 | 70 | 0.0 | 0.0 | 0.00 | 0.00 | 0.00 | 89 | 1021.7 | |
| 20260903062517 | 70 | 0.0 | 0.0 | 0.00 | 0.00 | 0.00 | 89 | 1021.7 | |
| 20260903061517 | 71 | 0.0 | 0.0 | 0.00 | 0.00 | 0.00 | 89 | 1021.9 | |
| 20260903060537 | 71 | 0.0 | 0.0 | 0.00 | 0.00 | 0.00 | 89 | 1022.0 | |
| 20260903055517 | 71 | 0.0 | 0.0 | 0.00 | 0.00 | 0.00 | 89 | 1022.1 | |
| 20260903054517 | 71 | 0.0 | 0.0 | 0.00 | 0.00 | 0.00 | 89 | 1022.1 | |
| 20260903053517 | 71 | 0.0 | 0.0 | 0.00 | 0.00 | 0.00 | 89 | 1022.1 | |
| 20260903052517 | 72 | 0.0 | 0.0 | 0.00 | 0.00 | 0.00 | 88 | 1022.0 | |
| 20260903051517 | 72 | 0.0 | 0.0 | 0.00 | 0.00 | 0.00 | 88 | 1022.0 | |
| 20260903050517 | 72 | 0.0 | 0.0 | 0.00 | 0.00 | 0.00 | 88 | 1022.0 | |
| 20260903045517 | 72 | 0.0 | 0.0 | 0.00 | 0.00 | 0.00 | 88 | 1021.9 | |
| 20260903044517 | 72 | 0.0 | 0.9 | 0.00 | 0.00 | 0.00 | 88 | 1022.0 | |
| 20260903043517 | 72 | 0.0 | 0.0 | 0.00 | 0.00 | 0.00 | 87 | 1022.1 | |
| 20260903042519 | 73 | 0.0 | 0.0 | 0.00 | 0.00 | 0.00 | 87 | 1021.8 | |
| 20260903041537 | 73 | 0.0 | 0.0 | 0.00 | 0.00 | 0.00 | 86 | 1021.8 | |
| 20260903040516 | 73 | 0.0 | 0.0 | 0.00 | 0.00 | 0.00 | 86 | 1022.0 | |
| 20260903035517 | 74 | 0.0 | 0.0 | 0.00 | 0.00 | 0.00 | 85 | 1021.8 | |
| 20260903034517 | 74 | 0.0 | 0.0 | 0.00 | 0.00 | 0.00 | 85 | 1021.9 | |
| 20260903033517 | 74 | 0.0 | 0.0 | 0.00 | 0.00 | 0.00 | 84 | 1022.0 | |
| 20260903032517 | 75 | 0.0 | 0.0 | 0.00 | 0.00 | 0.00 | 83 | 1021.9 | |
| 20260903031517 | 75 | 0.0 | 0.0 | 0.00 | 0.00 | 0.00 | 83 | 1022.1 | |
| 20260903030517 | 75 | 0.0 | 0.0 | 0.00 | 0.00 | 0.00 | 83 | 1021.9 | |
| 20260903025517 | 75 | 0.0 | 0.0 | 0.00 | 0.00 | 0.00 | 82 | 1021.8 | |
| 20260903024516 | 76 | 0.0 | 0.0 | 0.00 | 0.00 | 0.00 | 82 | 1021.8 | |
| 20260903023517 | 76 | 0.0 | 0.0 | 0.00 | 0.00 | 0.00 | 82 | 1021.9 | |
| 20260903022517 | 76 | 0.0 | 0.0 | 0.00 | 0.00 | 0.00 | 82 | 1021.8 | |
| 20260903021517 | 76 | 0.0 | 0.0 | 0.00 | 0.00 | 0.00 | 82 | 1021.7 | |
| 20260903020517 | 76 | 0.0 | 0.0 | 0.00 | 0.00 | 0.00 | 82 | 1021.6 | |
| 20260903015516 | 77 | 0.0 | 0.0 | 0.00 | 0.00 | 0.00 | 81 | 1021.4 | |
| 20260903014517 | 77 | 0.0 | 0.0 | 0.00 | 0.00 | 0.00 | 80 | 1021.4 | |
| 20260903013517 | 77 | 0.0 | 0.0 | 0.00 | 0.00 | 0.00 | 79 | 1021.1 | |
| 20260903012516 | 78 | 0.0 | 0.0 | 0.00 | 0.00 | 0.00 | 79 | 1021.0 | |
| 20260903011516 | 78 | 0.0 | 0.9 | 0.00 | 0.00 | 0.00 | 78 | 1020.9 | |
| 20260903010516 | 79 | 0.0 | 0.0 | 0.00 | 0.00 | 0.00 | 77 | 1020.8 | |
| 20260903005516 | 79 | 0.0 | 0.0 | 0.00 | 0.00 | 0.00 | 75 | 1020.5 | |
| 20260903004516 | 80 | 0.0 | 0.0 | 0.00 | 0.00 | 0.00 | 73 | 1020.3 | |
| 20260903003516 | 80 | 0.0 | 0.0 | 0.00 | 0.00 | 0.00 | 73 | 1020.1 |